Location: Paddlesworth
(51.1000°N, 1.1333°E)
Time: 09:06:38
(UTC+00:00)

USA 245 - Pass Details

Date: 11 May 2021
Orbit: 265 x 982 km, 97.9° (Epoch: 13 June)

Event Time Altitude Azimuth Distance (km) Brightness Sun altitude
Exits shadow 21:22:55 17° 210° (SSW) 789 3.9 -13.5°
Maximum altitude 21:24:08 28° 261° (W) 550 3.6 -13.6°
Drops below altitude 10° 21:26:09 10° 324° (NW) 1,099 6.3 -13.8°
Sets 21:28:09 0° 338° (NNW) 1,957 7.9 -14.0°
